Location: Hartford
(41.7640°N, 72.6860°W)
Time: 01:45:50
(UTC-04:00)

ISS - Visible Passes

Search period start: 01 August 2015 00:00
Search period end: 11 August 2015 00:00
Orbit: 401 x 403 km, 51.6° (Epoch: 31 July)

Date Brightness Start Highest point End Pass type
(mag) Time Alt. Az. Time Alt. Az. Time Alt. Az.
01 Aug -0.7 02:22:06 20° NE 02:22:06 20° NE 02:23:52 10° ENE visible
01 Aug -3.5 03:55:02 13° WNW 03:57:55 73° SW 04:01:10 10° SE visible
01 Aug -1.8 22:10:25 10° W 22:13:29 37° NNW 22:16:34 10° NE visible
01 Aug -0.2 23:48:32 10° NW 23:50:37 15° N 23:51:24 14° N visible
02 Aug -1.3 04:42:22 13° SSW 04:42:22 13° SSW 04:43:07 10° S visible
02 Aug -2.9 21:17:11 10° WSW 21:20:24 64° NNW 21:23:39 10° NE visible
02 Aug -0.4 22:54:58 10° WNW 22:57:19 18° NNW 22:59:41 10° NNE visible
03 Aug 0.1 00:32:39 10° NNW 00:32:59 11° NNW 00:32:59 11° NNW visible
03 Aug -0.8 22:01:23 10° WNW 22:04:05 23° NNW 22:06:47 10° NE visible
03 Aug -0.2 23:39:28 10° NW 23:41:22 14° N 23:41:47 14° N visible
04 Aug -1.5 21:07:53 10° W 21:10:53 33° NNW 21:13:54 10° NE visible
04 Aug -0.2 22:46:02 10° NW 22:48:03 15° N 22:50:02 10° NNE visible
05 Aug 0.2 00:23:00 10° NNW 00:23:06 11° NNW 00:23:06 11° NNW visible
05 Aug -0.4 21:52:27 10° NW 21:54:44 17° NNW 21:56:59 10° NNE visible
05 Aug -0.3 23:30:01 10° NNW 23:31:48 16° N 23:31:48 16° N visible
06 Aug -0.8 20:58:50 10° WNW 21:01:27 21° NNW 21:04:02 10° NE visible
06 Aug -0.4 22:36:50 10° NW 22:38:45 15° N 22:40:29 11° NE visible
07 Aug -0.4 21:43:26 10° NW 21:45:24 15° N 21:47:21 10° NNE visible
07 Aug -0.4 23:20:14 10° NNW 23:21:44 17° N 23:21:44 17° N visible
08 Aug -0.5 20:49:52 10° NW 20:52:03 16° N 20:54:14 10° NNE visible
08 Aug -0.7 22:27:14 10° NNW 22:29:24 16° N 22:30:25 15° NNE visible
09 Aug -0.5 21:34:06 10° NNW 21:36:03 15° N 21:38:00 10° NE visible
09 Aug -0.5 23:10:21 10° NW 23:11:40 19° NNW 23:11:40 19° NNW visible
10 Aug -0.5 20:40:44 10° NW 20:42:40 15° N 20:44:36 10° NNE visible
10 Aug -1.2 22:17:24 10° NW 22:19:58 21° NNE 22:20:21 21° NNE visible
